Location: Middelsbur
(53.6609°N, 7.5020°E)
Time: 13:02:02
(UTC+00:00)

Cosmos 158 Rocket - Pass Details

Date: 06 July 2020
Orbit: 698 x 794 km, 74.0° (Epoch: 07 August)

Event Time Altitude Azimuth Distance (km) Brightness Sun altitude
Exits shadow 22:09:32 12° 189° (S) 2,000 5.6 -11.6°
Maximum altitude 22:13:54 61° 111° (ESE) 801 3.9 -11.8°
Drops below altitude 10° 22:18:45 10° 32° (NNE) 2,195 7.0 -12.0°
Sets 22:21:08 0° 29° (NNE) 3,130 7.9 -12.1°
